Location: Fall River State Park
(37.6544°N, 96.0972°W)
Time: 19:39:16
(UTC-05:00)

Hubble Space Telescope - Visible Passes

Search period start: 25 September 2018 00:00
Search period end: 05 October 2018 00:00
Orbit: 537 x 541 km, 28.5° (Epoch: 24 September)

Date Brightness Start Highest point End Pass type
(mag) Time Alt. Az. Time Alt. Az. Time Alt. Az.
25 Sep 3.0 19:58:32 10° SW 20:01:12 17° SSW 20:03:53 10° SSE visible
26 Sep 3.2 19:48:22 10° SW 19:50:43 15° SSW 19:53:04 10° SSE visible
27 Sep 3.3 19:38:21 10° SW 19:40:12 13° SSW 19:42:04 10° S visible
